Retour au catalogue

STARLINK-35241

ActifCommunicationsVLEO
NORAD 65515·PAYLOAD·🇺🇸 United States

Lancé Sep 5, 2025 depuis Cape Canaveral Space Force Station

Loading…

Prochains Passages (prochaines 24 heures)

TLE

FraisSource: CelesTrak SupGP

Époque: Sep 15, 2026, 02:24 UTC

1 65515C 25198Z   26258.10048611  .00027979  00000+0  82598-3 0  2587
2 65515  53.1566 109.2234 0001196  87.3369  54.9311 15.34401933    11

Suivez STARLINK-35241 en temps réel avec AllMySat

Download on the App Store